OAL114 LGAV-LIPR

Flight info

Callsign OAL114
Flight time 1h 45m
Altitude 34000
Route KOR UL53 KRK UL995 TIGRA KAPPO ANC
Aircraft B738/M-VGDW/C

Departure

Time 2026-05-05 16:43
Airport Athens Eleftherios Venizelos International Airport (LGAV)

Arrival

Time 2026-05-05 18:29
Airport Federico Fellini International Airport (LIPR)
Time Latitude Longitude Altitude Speed Heading
2026-05-05 16:24 37.93834 23.95065 272 ft 0 kts 308°
2026-05-05 16:34 37.93829 23.95073 302 ft 2 kts 307°
2026-05-05 16:35 37.93819 23.95090 301 ft 2 kts 307°
2026-05-05 16:35 37.93809 23.95106 299 ft 2 kts 307°
2026-05-05 16:35 37.93801 23.95124 301 ft 2 kts 281°
2026-05-05 16:35 37.93801 23.95145 301 ft 2 kts 244°
2026-05-05 16:36 37.93808 23.95157 299 ft 0 kts 215°
2026-05-05 16:37 37.93795 23.95145 300 ft 7 kts 216°
2026-05-05 16:37 37.93748 23.95109 300 ft 8 kts 194°
2026-05-05 16:37 37.93699 23.95143 300 ft 9 kts 131°
2026-05-05 16:37 37.93650 23.95217 298 ft 13 kts 132°
2026-05-05 16:38 37.93570 23.95207 296 ft 13 kts 220°
2026-05-05 16:38 37.93500 23.95139 297 ft 13 kts 217°
2026-05-05 16:38 37.93432 23.95073 300 ft 12 kts 216°
2026-05-05 16:38 37.93364 23.95010 300 ft 12 kts 217°
2026-05-05 16:39 37.93298 23.94946 299 ft 13 kts 217°
2026-05-05 16:39 37.93203 23.94857 300 ft 18 kts 216°
2026-05-05 16:39 37.93107 23.94765 301 ft 17 kts 217°
2026-05-05 16:39 37.93013 23.94676 302 ft 17 kts 216°
2026-05-05 16:40 37.92922 23.94591 302 ft 16 kts 217°
2026-05-05 16:40 37.92829 23.94502 301 ft 18 kts 217°
2026-05-05 16:40 37.92728 23.94407 302 ft 18 kts 216°
2026-05-05 16:40 37.92631 23.94315 302 ft 17 kts 217°
2026-05-05 16:41 37.92547 23.94307 304 ft 11 kts 133°
2026-05-05 16:41 37.92533 23.94331 304 ft 0 kts 126°
2026-05-05 16:41 37.92532 23.94332 304 ft 2 kts 126°
2026-05-05 16:42 37.92517 23.94358 306 ft 4 kts 127°
2026-05-05 16:42 37.92495 23.94397 307 ft 8 kts 117°
2026-05-05 16:42 37.92513 23.94479 307 ft 11 kts 42°
2026-05-05 16:42 37.92571 23.94535 305 ft 10 kts 37°
2026-05-05 16:43 37.92710 23.94667 302 ft 57 kts 37°
2026-05-05 16:43 37.93227 23.95155 293 ft 126 kts 36°
2026-05-05 16:43 37.94071 23.95957 431 ft 166 kts 37°
2026-05-05 16:43 37.94991 23.96796 1171 ft 171 kts 26°
2026-05-05 16:44 37.96119 23.97283 1922 ft 172 kts 28°
2026-05-05 16:44 37.97074 23.98324 2351 ft 195 kts 42°
2026-05-05 16:44 37.98138 23.99537 2574 ft 216 kts 39°
2026-05-05 16:44 37.99337 24.00820 2799 ft 232 kts 38°
2026-05-05 16:45 38.00617 24.02139 3262 ft 240 kts 37°
2026-05-05 16:45 38.01948 24.03472 3826 ft 246 kts 35°
2026-05-05 16:45 38.03292 24.04792 4647 ft 243 kts 34°
2026-05-05 16:45 38.04634 24.06095 5382 ft 244 kts 34°
2026-05-05 16:46 38.06006 24.07375 6082 ft 244 kts 26°
2026-05-05 16:46 38.07633 24.07977 6546 ft 250 kts 358°
2026-05-05 16:46 38.09333 24.07471 7036 ft 257 kts 331°
2026-05-05 16:46 38.10662 24.05954 7682 ft 263 kts 304°
2026-05-05 16:47 38.11289 24.03788 8333 ft 271 kts 281°
2026-05-05 16:47 38.11380 24.01368 8994 ft 277 kts 272°
2026-05-05 16:47 38.11298 23.98901 9634 ft 282 kts 270°
2026-05-05 16:47 38.11177 23.96391 10237 ft 287 kts 270°
2026-05-05 16:48 38.11052 23.93770 10412 ft 309 kts 270°
2026-05-05 16:48 38.10927 23.90959 10574 ft 329 kts 270°
2026-05-05 16:48 38.10802 23.87969 10726 ft 349 kts 270°
2026-05-05 16:48 38.10677 23.84821 10985 ft 363 kts 270°
2026-05-05 16:49 38.10552 23.81590 11495 ft 369 kts 270°
2026-05-05 16:49 38.10430 23.78364 12066 ft 372 kts 270°
2026-05-05 16:49 38.10308 23.75066 12645 ft 376 kts 270°
2026-05-05 16:49 38.10186 23.71723 13219 ft 381 kts 270°
2026-05-05 16:50 38.10063 23.68339 13803 ft 386 kts 270°
2026-05-05 16:50 38.09938 23.64908 14372 ft 389 kts 270°
2026-05-05 16:50 38.09811 23.61457 14978 ft 392 kts 270°
2026-05-05 16:50 38.09683 23.57988 15600 ft 394 kts 270°
2026-05-05 16:51 38.09554 23.54498 16239 ft 396 kts 269°
2026-05-05 16:51 38.09423 23.50992 16834 ft 399 kts 269°
2026-05-05 16:51 38.09292 23.47502 17408 ft 402 kts 269°
2026-05-05 16:51 38.09157 23.43938 18014 ft 405 kts 269°
2026-05-05 16:52 38.09019 23.40344 18565 ft 408 kts 269°
2026-05-05 16:52 38.08880 23.36736 19061 ft 411 kts 269°
2026-05-05 16:52 38.08739 23.33108 19558 ft 413 kts 269°
2026-05-05 16:52 38.08596 23.29458 20061 ft 415 kts 269°
2026-05-05 16:53 38.08452 23.25794 20548 ft 416 kts 269°
2026-05-05 16:53 38.08305 23.22118 21051 ft 418 kts 269°
2026-05-05 16:53 38.08157 23.18424 21523 ft 420 kts 270°
2026-05-05 16:53 38.08234 23.14727 21987 ft 418 kts 282°
2026-05-05 16:54 38.08665 23.12353 22320 ft 416 kts 290°
2026-05-05 16:54 38.10267 23.07979 23033 ft 411 kts 304°
2026-05-05 16:54 38.11831 23.04942 23540 ft 411 kts 306°
2026-05-05 16:54 38.13411 23.01906 23931 ft 413 kts 306°
2026-05-05 16:55 38.14992 22.98862 24333 ft 413 kts 306°
2026-05-05 16:55 38.16036 22.96841 24613 ft 413 kts 306°
2026-05-05 16:55 38.17608 22.93784 25030 ft 413 kts 306°
2026-05-05 16:55 38.19173 22.90720 25422 ft 413 kts 306°
2026-05-05 16:56 38.20735 22.87651 25804 ft 414 kts 306°
2026-05-05 16:56 38.22297 22.84570 26144 ft 415 kts 306°
2026-05-05 16:56 38.23868 22.81467 26490 ft 417 kts 306°
2026-05-05 16:56 38.25442 22.78354 26801 ft 419 kts 306°
2026-05-05 16:57 38.27017 22.75234 27170 ft 419 kts 306°
2026-05-05 16:57 38.28593 22.72108 27519 ft 419 kts 306°
2026-05-05 16:57 38.30150 22.69018 27830 ft 420 kts 306°
2026-05-05 16:57 38.31728 22.65883 28180 ft 420 kts 306°
2026-05-05 16:58 38.33299 22.62758 28646 ft 417 kts 306°
2026-05-05 16:58 38.34859 22.59651 29195 ft 413 kts 306°
2026-05-05 16:58 38.36401 22.56577 29674 ft 410 kts 306°
2026-05-05 16:58 38.37933 22.53519 30130 ft 408 kts 306°
2026-05-05 16:59 38.39453 22.50484 30536 ft 405 kts 306°
2026-05-05 16:59 38.40970 22.47456 30862 ft 405 kts 306°
2026-05-05 16:59 38.42487 22.44424 31118 ft 405 kts 306°
2026-05-05 16:59 38.44009 22.41381 31364 ft 406 kts 306°
2026-05-05 17:00 38.45507 22.38382 31674 ft 405 kts 306°
2026-05-05 17:00 38.47018 22.35351 31998 ft 404 kts 306°
2026-05-05 17:00 38.48528 22.32321 32336 ft 403 kts 306°
2026-05-05 17:00 38.50025 22.29313 32671 ft 400 kts 307°
2026-05-05 17:01 38.51518 22.26314 32832 ft 401 kts 306°
2026-05-05 17:01 38.53018 22.23295 32983 ft 403 kts 306°
2026-05-05 17:01 38.54518 22.20274 33154 ft 403 kts 306°
2026-05-05 17:01 38.56020 22.17246 33363 ft 404 kts 306°
2026-05-05 17:02 38.57526 22.14204 33494 ft 405 kts 306°
2026-05-05 17:02 38.59031 22.11164 33725 ft 404 kts 306°
2026-05-05 17:02 38.60534 22.08125 33988 ft 403 kts 306°
2026-05-05 17:02 38.62035 22.05087 34069 ft 406 kts 306°
2026-05-05 17:03 38.65052 21.98973 34070 ft 405 kts 306°
2026-05-05 17:03 38.68025 21.92931 34089 ft 402 kts 306°
2026-05-05 17:04 38.71013 21.86853 34084 ft 402 kts 306°
2026-05-05 17:04 38.73987 21.80793 34084 ft 401 kts 306°
2026-05-05 17:05 38.76954 21.74734 34094 ft 401 kts 306°
2026-05-05 17:05 38.79900 21.68706 34087 ft 401 kts 306°
2026-05-05 17:06 38.82856 21.62646 34085 ft 400 kts 306°
2026-05-05 17:06 38.85808 21.56585 34089 ft 401 kts 306°
2026-05-05 17:07 38.88764 21.50502 34087 ft 402 kts 306°
2026-05-05 17:07 38.91725 21.44399 34097 ft 402 kts 306°
2026-05-05 17:08 38.94665 21.38327 34103 ft 403 kts 306°
2026-05-05 17:08 38.97628 21.32194 34098 ft 403 kts 306°
2026-05-05 17:09 39.00591 21.26051 34094 ft 403 kts 305°
2026-05-05 17:09 39.03541 21.19921 34108 ft 403 kts 305°
2026-05-05 17:10 39.06471 21.13823 34102 ft 403 kts 305°
2026-05-05 17:10 39.09421 21.07671 34091 ft 403 kts 305°
2026-05-05 17:11 39.12356 21.01537 34103 ft 402 kts 305°
2026-05-05 17:11 39.15285 20.95407 34103 ft 401 kts 305°
2026-05-05 17:12 39.18186 20.89322 34107 ft 400 kts 305°
2026-05-05 17:12 39.21094 20.83210 34112 ft 399 kts 305°
2026-05-05 17:13 39.23999 20.77095 34115 ft 400 kts 305°
2026-05-05 17:13 39.26901 20.70973 34107 ft 400 kts 305°
2026-05-05 17:14 39.29808 20.64829 34105 ft 401 kts 304°
2026-05-05 17:14 39.32716 20.58671 34107 ft 402 kts 304°
2026-05-05 17:15 39.35628 20.52492 34112 ft 402 kts 304°
2026-05-05 17:15 39.38521 20.46341 34120 ft 402 kts 304°
2026-05-05 17:16 39.41429 20.40145 34114 ft 403 kts 304°
2026-05-05 17:16 39.44341 20.33929 34111 ft 404 kts 304°
2026-05-05 17:17 39.47230 20.27750 34110 ft 403 kts 304°
2026-05-05 17:17 39.50138 20.21519 34105 ft 404 kts 304°
2026-05-05 17:18 39.53046 20.15276 34108 ft 404 kts 304°
2026-05-05 17:18 39.55948 20.09033 34107 ft 404 kts 303°
2026-05-05 17:19 39.58831 20.02816 34104 ft 404 kts 303°
2026-05-05 17:19 39.61725 19.96567 34102 ft 404 kts 303°
2026-05-05 17:20 39.64616 19.90309 34102 ft 404 kts 303°
2026-05-05 17:20 39.67503 19.84047 34105 ft 404 kts 303°
2026-05-05 17:21 39.70385 19.77786 34108 ft 404 kts 303°
2026-05-05 17:22 39.74686 19.68416 34106 ft 404 kts 303°
2026-05-05 17:22 39.77560 19.62139 34111 ft 404 kts 302°
2026-05-05 17:23 39.80434 19.55849 34111 ft 404 kts 302°
2026-05-05 17:23 39.83313 19.49537 34108 ft 405 kts 302°
2026-05-05 17:24 39.86168 19.43264 34107 ft 405 kts 302°
2026-05-05 17:24 39.89043 19.36934 34105 ft 406 kts 302°
2026-05-05 17:25 39.91913 19.30603 34103 ft 406 kts 302°
2026-05-05 17:25 39.94784 19.24256 34095 ft 406 kts 302°
2026-05-05 17:26 39.97636 19.17937 34100 ft 406 kts 302°
2026-05-05 17:26 40.00502 19.11574 34092 ft 406 kts 302°
2026-05-05 17:27 40.03362 19.05215 34093 ft 406 kts 302°
2026-05-05 17:27 40.06276 18.98899 34084 ft 406 kts 306°
2026-05-05 17:28 40.09607 18.92956 34080 ft 405 kts 307°
2026-05-05 17:28 40.12966 18.87053 34083 ft 405 kts 307°
2026-05-05 17:29 40.16309 18.81125 34085 ft 404 kts 307°
2026-05-05 17:29 40.19608 18.75238 34081 ft 404 kts 306°
2026-05-05 17:30 40.22921 18.69308 34078 ft 403 kts 306°
2026-05-05 17:30 40.26232 18.63369 34077 ft 403 kts 306°
2026-05-05 17:31 40.29540 18.57427 34072 ft 403 kts 306°
2026-05-05 17:31 40.32836 18.51492 34071 ft 403 kts 306°
2026-05-05 17:32 40.36132 18.45550 34072 ft 402 kts 306°
2026-05-05 17:32 40.39409 18.39653 34066 ft 401 kts 305°
2026-05-05 17:33 40.42696 18.33742 34069 ft 400 kts 305°
2026-05-05 17:33 40.45975 18.27832 34069 ft 400 kts 304°
2026-05-05 17:34 40.49241 18.21914 34065 ft 400 kts 304°
2026-05-05 17:34 40.52500 18.15987 34054 ft 399 kts 304°
2026-05-05 17:35 40.55758 18.10055 34050 ft 399 kts 304°
2026-05-05 17:35 40.58991 18.04157 34049 ft 399 kts 304°
2026-05-05 17:36 40.62378 17.98336 34049 ft 401 kts 309°
2026-05-05 17:36 40.66126 17.92877 34045 ft 402 kts 309°
2026-05-05 17:37 40.69884 17.87424 34052 ft 402 kts 309°
2026-05-05 17:37 40.73604 17.81978 34050 ft 402 kts 309°
2026-05-05 17:38 40.77337 17.76486 34051 ft 402 kts 309°
2026-05-05 17:38 40.81072 17.70978 34048 ft 402 kts 309°
2026-05-05 17:39 40.84804 17.65465 34054 ft 402 kts 309°
2026-05-05 17:39 40.88539 17.59940 34054 ft 403 kts 309°
2026-05-05 17:40 40.92256 17.54463 34053 ft 403 kts 309°
2026-05-05 17:40 40.96009 17.48951 34048 ft 403 kts 309°
2026-05-05 17:41 40.99756 17.43434 34050 ft 403 kts 309°
2026-05-05 17:41 41.03501 17.37905 34047 ft 403 kts 309°
2026-05-05 17:42 41.07245 17.32368 34046 ft 403 kts 309°
2026-05-05 17:42 41.10991 17.26815 34041 ft 404 kts 309°
2026-05-05 17:43 41.14102 17.22195 34045 ft 404 kts 309°
2026-05-05 17:43 41.18460 17.15715 34042 ft 404 kts 309°
2026-05-05 17:44 41.21572 17.11070 34044 ft 404 kts 309°
2026-05-05 17:44 41.25308 17.05478 34041 ft 404 kts 309°
2026-05-05 17:45 41.29043 16.99877 34043 ft 405 kts 309°
2026-05-05 17:45 41.32758 16.94295 34040 ft 405 kts 309°
2026-05-05 17:46 41.36496 16.88670 34041 ft 405 kts 309°
2026-05-05 17:46 41.40228 16.83035 34039 ft 406 kts 308°
2026-05-05 17:47 41.43953 16.77380 34035 ft 406 kts 308°
2026-05-05 17:47 41.47677 16.71715 34032 ft 406 kts 308°
2026-05-05 17:48 41.51401 16.66043 34028 ft 406 kts 308°
2026-05-05 17:48 41.55102 16.60404 34027 ft 406 kts 308°
2026-05-05 17:49 41.58830 16.54739 34026 ft 406 kts 308°
2026-05-05 17:49 41.62558 16.49064 34025 ft 405 kts 308°
2026-05-05 17:50 41.66275 16.43392 34023 ft 405 kts 308°
2026-05-05 17:50 41.69964 16.37749 34026 ft 405 kts 308°
2026-05-05 17:51 41.73666 16.32076 34023 ft 405 kts 308°
2026-05-05 17:51 41.77367 16.26394 34021 ft 404 kts 308°
2026-05-05 17:52 41.81060 16.20713 34029 ft 404 kts 308°
2026-05-05 17:52 41.84756 16.15017 34026 ft 404 kts 308°
2026-05-05 17:53 41.88448 16.09316 34033 ft 404 kts 308°
2026-05-05 17:53 41.92144 16.03616 34031 ft 404 kts 309°
2026-05-05 17:54 41.95908 15.98046 34040 ft 405 kts 309°
2026-05-05 17:54 41.99714 15.92466 34050 ft 405 kts 309°
2026-05-05 17:55 42.03508 15.86872 34046 ft 404 kts 309°
2026-05-05 17:55 42.07291 15.81265 34036 ft 404 kts 309°
2026-05-05 17:56 42.11052 15.75676 34033 ft 404 kts 309°
2026-05-05 17:56 42.14821 15.70063 34030 ft 404 kts 309°
2026-05-05 17:57 42.18587 15.64446 34017 ft 404 kts 309°
2026-05-05 17:57 42.22352 15.58818 34010 ft 403 kts 309°
2026-05-05 17:58 42.26108 15.53193 34013 ft 403 kts 309°
2026-05-05 17:58 42.29870 15.47550 34012 ft 404 kts 308°
2026-05-05 17:59 42.33610 15.41899 34009 ft 403 kts 308°
2026-05-05 17:59 42.37324 15.36259 34013 ft 404 kts 308°
2026-05-05 18:00 42.41056 15.30584 34014 ft 404 kts 308°
2026-05-05 18:00 42.44787 15.24901 34005 ft 404 kts 308°
2026-05-05 18:01 42.48519 15.19208 34015 ft 404 kts 308°
2026-05-05 18:01 42.52253 15.13527 34016 ft 404 kts 308°
2026-05-05 18:02 42.55990 15.07834 34010 ft 404 kts 308°
2026-05-05 18:02 42.59720 15.02139 34011 ft 403 kts 308°
2026-05-05 18:03 42.63422 14.96471 34010 ft 403 kts 308°
2026-05-05 18:03 42.67143 14.90766 34010 ft 403 kts 308°
2026-05-05 18:04 42.70858 14.85065 34012 ft 403 kts 307°
2026-05-05 18:04 42.74572 14.79359 34012 ft 402 kts 307°
2026-05-05 18:05 42.78281 14.73647 34013 ft 402 kts 307°
2026-05-05 18:05 42.81983 14.67934 34017 ft 402 kts 307°
2026-05-05 18:06 42.85661 14.62248 34015 ft 402 kts 307°
2026-05-05 18:06 42.89369 14.56502 33954 ft 403 kts 307°
2026-05-05 18:06 42.91241 14.53596 33472 ft 406 kts 307°
2026-05-05 18:07 42.93091 14.50723 32985 ft 402 kts 307°
2026-05-05 18:07 42.94903 14.47911 32562 ft 397 kts 307°
2026-05-05 18:07 42.96718 14.45088 32095 ft 393 kts 307°
2026-05-05 18:07 42.98515 14.42290 31651 ft 390 kts 307°
2026-05-05 18:08 43.00293 14.39517 31213 ft 387 kts 307°
2026-05-05 18:08 43.02062 14.36755 30779 ft 384 kts 307°
2026-05-05 18:08 43.03819 14.34011 30350 ft 382 kts 307°
2026-05-05 18:08 43.05563 14.31282 29892 ft 379 kts 307°
2026-05-05 18:09 43.07293 14.28573 29401 ft 377 kts 307°
2026-05-05 18:09 43.08991 14.25912 28939 ft 374 kts 307°
2026-05-05 18:09 43.10696 14.23238 28474 ft 371 kts 307°
2026-05-05 18:09 43.12384 14.20589 28051 ft 368 kts 307°
2026-05-05 18:10 43.14064 14.17950 27619 ft 366 kts 307°
2026-05-05 18:10 43.15731 14.15330 27192 ft 364 kts 307°
2026-05-05 18:10 43.17416 14.12676 26421 ft 376 kts 308°
2026-05-05 18:10 43.19128 14.09981 25928 ft 375 kts 308°
2026-05-05 18:11 43.20841 14.07287 25477 ft 373 kts 308°
2026-05-05 18:11 43.22541 14.04611 25045 ft 371 kts 308°
2026-05-05 18:11 43.24231 14.01949 24623 ft 369 kts 308°
2026-05-05 18:11 43.25912 13.99296 24196 ft 367 kts 308°
2026-05-05 18:12 43.27584 13.96654 23773 ft 366 kts 308°
2026-05-05 18:12 43.29250 13.94019 23302 ft 365 kts 308°
2026-05-05 18:12 43.30888 13.91427 22855 ft 363 kts 308°
2026-05-05 18:12 43.32537 13.88816 22420 ft 360 kts 308°
2026-05-05 18:13 43.34175 13.86218 21939 ft 359 kts 308°
2026-05-05 18:13 43.35812 13.83621 21479 ft 358 kts 308°
2026-05-05 18:13 43.37436 13.81046 21059 ft 355 kts 308°
2026-05-05 18:13 43.39050 13.78484 20652 ft 353 kts 308°
2026-05-05 18:14 43.40654 13.75934 20255 ft 351 kts 308°
2026-05-05 18:14 43.42246 13.73398 19857 ft 349 kts 308°
2026-05-05 18:14 43.43825 13.70871 19460 ft 347 kts 308°
2026-05-05 18:14 43.45374 13.68389 19062 ft 345 kts 308°
2026-05-05 18:15 43.46930 13.65891 18686 ft 343 kts 308°
2026-05-05 18:15 43.48484 13.63396 18299 ft 342 kts 308°
2026-05-05 18:15 43.50031 13.60910 17864 ft 340 kts 308°
2026-05-05 18:15 43.51566 13.58441 17452 ft 338 kts 308°
2026-05-05 18:16 43.53091 13.55986 17056 ft 336 kts 308°
2026-05-05 18:16 43.54608 13.53544 16671 ft 334 kts 308°
2026-05-05 18:16 43.56112 13.51121 16295 ft 331 kts 308°
2026-05-05 18:16 43.57608 13.48708 15914 ft 329 kts 308°
2026-05-05 18:17 43.59070 13.46293 15548 ft 326 kts 305°
2026-05-05 18:17 43.60410 13.43782 15174 ft 324 kts 303°
2026-05-05 18:17 43.61696 13.41237 14810 ft 322 kts 302°
2026-05-05 18:17 43.62953 13.38727 14453 ft 320 kts 302°
2026-05-05 18:18 43.64223 13.36203 14094 ft 319 kts 303°
2026-05-05 18:18 43.65489 13.33699 13727 ft 318 kts 303°
2026-05-05 18:18 43.66756 13.31204 13318 ft 316 kts 303°
2026-05-05 18:18 43.68020 13.28723 12936 ft 315 kts 303°
2026-05-05 18:19 43.69276 13.26259 12705 ft 309 kts 303°
2026-05-05 18:19 43.70495 13.23867 12561 ft 300 kts 303°
2026-05-05 18:19 43.71681 13.21541 12428 ft 291 kts 303°
2026-05-05 18:19 43.72831 13.19284 12299 ft 283 kts 302°
2026-05-05 18:20 43.73948 13.17088 12180 ft 274 kts 302°
2026-05-05 18:20 43.75018 13.14984 12065 ft 266 kts 302°
2026-05-05 18:20 43.76068 13.12918 11880 ft 261 kts 302°
2026-05-05 18:20 43.77134 13.10809 11270 ft 272 kts 302°
2026-05-05 18:21 43.78241 13.08613 10602 ft 283 kts 302°
2026-05-05 18:21 43.79377 13.06359 9917 ft 289 kts 302°
2026-05-05 18:21 43.80504 13.04130 9788 ft 268 kts 302°
2026-05-05 18:21 43.81539 13.02083 9391 ft 254 kts 302°
2026-05-05 18:22 43.82542 13.00091 8755 ft 251 kts 302°
2026-05-05 18:22 43.83534 12.98121 8165 ft 246 kts 302°
2026-05-05 18:22 43.84492 12.96218 7787 ft 235 kts 302°
2026-05-05 18:22 43.85417 12.94380 7285 ft 230 kts 302°
2026-05-05 18:23 43.86319 12.92583 6773 ft 225 kts 302°
2026-05-05 18:23 43.87208 12.90816 6170 ft 221 kts 302°
2026-05-05 18:23 43.87936 12.89001 5582 ft 215 kts 290°
2026-05-05 18:23 43.88500 12.87055 4796 ft 220 kts 288°
2026-05-05 18:24 43.89061 12.85067 4018 ft 223 kts 287°
2026-05-05 18:24 43.89661 12.83101 3398 ft 220 kts 296°
2026-05-05 18:24 43.90560 12.81394 2760 ft 218 kts 303°
2026-05-05 18:24 43.91489 12.79813 2477 ft 198 kts 303°
2026-05-05 18:25 43.92326 12.78403 2430 ft 178 kts 303°
2026-05-05 18:25 43.92587 12.77964 2437 ft 171 kts 304°
2026-05-05 18:25 43.93768 12.75988 2453 ft 155 kts 302°
2026-05-05 18:25 43.94424 12.74822 2310 ft 153 kts 301°
2026-05-05 18:26 43.95076 12.73654 2098 ft 152 kts 301°
2026-05-05 18:26 43.95723 12.72492 1901 ft 152 kts 301°
2026-05-05 18:26 43.96364 12.71341 1713 ft 152 kts 301°
2026-05-05 18:26 43.97015 12.70172 1479 ft 153 kts 302°
2026-05-05 18:27 43.97666 12.68999 1294 ft 155 kts 302°
2026-05-05 18:27 43.98334 12.67802 1097 ft 159 kts 304°
2026-05-05 18:27 43.99019 12.66574 871 ft 160 kts 305°
2026-05-05 18:27 43.99698 12.65356 654 ft 158 kts 305°
2026-05-05 18:28 44.01023 12.62983 191 ft 155 kts 306°
2026-05-05 18:28 44.01684 12.61813 49 ft 149 kts 306°
2026-05-05 18:28 44.02204 12.60859 47 ft 93 kts 307°
2026-05-05 18:29 44.02475 12.60376 45 ft 45 kts 308°
2026-05-05 18:29 44.02647 12.60068 46 ft 28 kts 309°
2026-05-05 18:29 44.02680 12.59965 48 ft 0 kts 233°
2026-05-05 18:30 44.02702 12.59955 47 ft 8 kts 32°
2026-05-05 18:30 44.02777 12.60041 46 ft 17 kts 38°
2026-05-05 18:30 44.02831 12.60167 46 ft 17 kts 121°
2026-05-05 18:30 44.02759 12.60299 45 ft 17 kts 128°
2026-05-05 18:31 44.02713 12.60383 46 ft 16 kts 128°
2026-05-05 18:31 44.02645 12.60505 46 ft 16 kts 128°
2026-05-05 18:31 44.02579 12.60623 46 ft 15 kts 128°
2026-05-05 18:31 44.02497 12.60771 46 ft 14 kts 128°
2026-05-05 18:32 44.02438 12.60877 46 ft 14 kts 128°
2026-05-05 18:32 44.02399 12.60946 45 ft 13 kts 128°
2026-05-05 18:32 44.02345 12.61044 44 ft 13 kts 128°
2026-05-05 18:32 44.02291 12.61141 46 ft 12 kts 128°
2026-05-05 18:33 44.02238 12.61235 46 ft 12 kts 128°
2026-05-05 18:33 44.02187 12.61327 46 ft 12 kts 127°
2026-05-05 18:33 44.02199 12.61425 46 ft 12 kts 41°
2026-05-05 18:33 44.02262 12.61490 46 ft 11 kts 37°
2026-05-05 18:34 44.02299 12.61570 46 ft 11 kts 122°
2026-05-05 18:34 44.02266 12.61660 44 ft 11 kts 74°
2026-05-05 18:34 44.02324 12.61721 46 ft 9 kts 38°
2026-05-05 18:34 44.02331 12.61729 46 ft 0 kts 37°